Find Ibuki 2

NORAD ID: 43672 Int'l Des: 2018-084 Owner: JAXA Country: J operational
LEOCIRCULARRETROGRADESSO

現在のビュー

3D地球を読み込み中...

Ibuki 2について

説明を読み込み中...

次回通過

Passes for default location (London). Set your location on the main map for personalized predictions.

高度履歴

Loading altitude history...

軌道要素

1 43672U 18084B 26150.90085604 .00002433 00000-0 29692-3 0 9992
2 43672 97.8785 262.6114 0001472 92.2996 267.8387 14.84240729410996
Epoch: May 30, 2026 • Age: 10 hours

現在のステータス

高度 618.2 km
速度 7.55 km/s
衛星直下点 6.56°N, 73.51°E
打ち上げ日 Oct 29, 2018
運用期間 7.5 years
タイプ other

技術仕様

分類 Payload
質量 1750.00 kg
乾燥質量 1700.00 kg
総質量 1750.00 kg
長さ 5.30 m
直径 2.00 m
スパン 16.50 m
形状 Box + 2 Pan
製造者 MELCO
バスタイプ GOSAT
フェーズステータス In Orbit
所有者/国 JAXA/J

Most Searched